Location: Ravensburg
(47.7866°N, 9.6124°E)
Time: 14:50:23
(UTC+02:00)

AO-91 - Pass Details

Date: 17 March 2026
Orbit: 425 x 637 km, 97.5° (Epoch: 14 April)

Event Time Altitude Azimuth Distance (km) Brightness Sun altitude
Rises 20:55:06 0° 19° (NNE) 2,953 ? -24.3°
Reaches altitude 10° 20:57:27 10° 27° (NNE) 2,032 ? -24.7°
Enters shadow 20:58:07 14° 30° (NNE) 1,791 ? -24.8°
Exits shadow 21:25:47 -44° 189° (S) 9,459 ? -28.7°
